• In Österreich
  • Länderverzeichnis
  • Für 7 Tage
  • Wassertemperatur
  • Satellitenkarten
  • Wetterkarte
  • News
  • Widgets
  • user-avatar
    Anmelden

    Stündliche Wetter Chyhrynivka

    Heute, 22 Oktober, Montag

    Zeit Temperatur Niederschläge Wind Luftdruck Luftfeuchtigkeit
    00:00 +11°C° 0 mm 3 m/S 753 mmHg 76%
    01:00 +11°C° 0 mm 3 m/S 754 mmHg 78%
    02:00 +10°C° 0 mm 3 m/S 754 mmHg 80%
    03:00 +10°C° 0 mm 3 m/S 754 mmHg 79%
    04:00 +9°C° 0 mm 3 m/S 754 mmHg 79%
    05:00 +8°C° 0 mm 4 m/S 754 mmHg 79%
    06:00 +8°C° 0 mm 4 m/S 754 mmHg 76%
    07:00 +10°C° 0 mm 4 m/S 754 mmHg 72%
    08:00 +10°C° 0 mm 4 m/S 754 mmHg 69%
    09:00 +11°C° 0 mm 4 m/S 754 mmHg 65%
    10:00 +13°C° 0 mm 4 m/S 754 mmHg 60%
    11:00 +14°C° 0 mm 4 m/S 754 mmHg 56%
    12:00 +14°C° 0 mm 4 m/S 754 mmHg 54%
    13:00 +15°C° 0 mm 4 m/S 753 mmHg 52%
    14:00 +15°C° 0 mm 4 m/S 753 mmHg 50%
    15:00 +14°C° 0 mm 4 m/S 753 mmHg 53%
    16:00 +13°C° 0 mm 3 m/S 753 mmHg 55%
    17:00 +12°C° 0 mm 3 m/S 753 mmHg 58%
    18:00 +11°C° 0 mm 3 m/S 753 mmHg 60%
    19:00 +12°C° 0 mm 2 m/S 752 mmHg 61%
    20:00 +10°C° 0 mm 2 m/S 752 mmHg 63%
    21:00 +10°C° 0 mm 2 m/S 752 mmHg 63%
    22:00 +9°C° 0 mm 2 m/S 752 mmHg 64%
    23:00 +9°C° 0 mm 2 m/S 752 mmHg 64%

    Morgen, 23 Oktober, Dienstag

    Zeit Temperatur Niederschläge Wind Luftdruck Luftfeuchtigkeit
    00:00 +8°C° 0 mm 2 m/S 752 mmHg 64%
    01:00 +8°C° 0 mm 2 m/S 752 mmHg 64%
    02:00 +7°C° 0 mm 2 m/S 752 mmHg 64%
    03:00 +7°C° 0 mm 2 m/S 752 mmHg 65%
    04:00 +7°C° 0 mm 2 m/S 751 mmHg 66%
    05:00 +6°C° 0 mm 2 m/S 751 mmHg 67%
    06:00 +7°C° 0 mm 3 m/S 751 mmHg 64%
    07:00 +7°C° 0 mm 3 m/S 751 mmHg 62%
    08:00 +8°C° 0 mm 3 m/S 751 mmHg 60%
    09:00 +9°C° 0 mm 3 m/S 751 mmHg 54%
    10:00 +11°C° 0 mm 4 m/S 751 mmHg 49%
    11:00 +12°C° 0 mm 4 m/S 750 mmHg 44%
    12:00 +13°C° 0 mm 4 m/S 750 mmHg 43%
    13:00 +13°C° 0 mm 5 m/S 749 mmHg 42%
    14:00 +14°C° 0 mm 5 m/S 748 mmHg 41%
    15:00 +13°C° 0 mm 4 m/S 748 mmHg 44%
    16:00 +12°C° 0 mm 4 m/S 747 mmHg 46%
    17:00 +11°C° 0 mm 3 m/S 747 mmHg 49%
    18:00 +10°C° 0 mm 3 m/S 747 mmHg 51%
    19:00 +10°C° 0 mm 3 m/S 746 mmHg 53%
    20:00 +8°C° 0 mm 4 m/S 746 mmHg 55%
    21:00 +8°C° 0 mm 4 m/S 745 mmHg 58%
    22:00 +8°C° 0 mm 4 m/S 745 mmHg 60%
    23:00 +8°C° 0 mm 4 m/S 744 mmHg 63%

    übermorgen, 24 Oktober, Mittwoch

    Zeit Temperatur Niederschläge Wind Luftdruck Luftfeuchtigkeit
    00:00 +8°C° 0.3 mm 5 m/S 743 mmHg 65%
    01:00 +8°C° 0.3 mm 5 m/S 742 mmHg 67%
    02:00 +9°C° 0.3 mm 6 m/S 741 mmHg 69%
    03:00 +9°C° 0.6 mm 6 m/S 740 mmHg 71%
    04:00 +9°C° 0.6 mm 7 m/S 739 mmHg 72%
    05:00 +10°C° 0.6 mm 8 m/S 738 mmHg 74%
    06:00 +10°C° 0.2 mm 8 m/S 737 mmHg 73%
    07:00 +10°C° 0.2 mm 8 m/S 737 mmHg 72%
    08:00 +10°C° 0.2 mm 8 m/S 736 mmHg 72%
    09:00 +10°C° 0 mm 8 m/S 735 mmHg 67%
    10:00 +11°C° 0 mm 8 m/S 735 mmHg 62%
    11:00 +11°C° 0 mm 9 m/S 734 mmHg 57%
    12:00 +11°C° 0.1 mm 9 m/S 733 mmHg 58%
    13:00 +11°C° 0.1 mm 8 m/S 732 mmHg 60%
    14:00 +11°C° 0.1 mm 8 m/S 731 mmHg 61%
    15:00 +11°C° 0.5 mm 8 m/S 731 mmHg 64%
    16:00 +11°C° 0.5 mm 7 m/S 730 mmHg 67%
    17:00 +10°C° 0.5 mm 6 m/S 730 mmHg 70%
    18:00 +9°C° 0.7 mm 6 m/S 730 mmHg 69%
    19:00 +8°C° 0.7 mm 6 m/S 730 mmHg 68%
    20:00 +8°C° 0.7 mm 6 m/S 730 mmHg 67%
    21:00 +7°C° 0 mm 6 m/S 730 mmHg 67%
    22:00 +5°C° 0 mm 6 m/S 730 mmHg 67%
    23:00 +4°C° 0 mm 6 m/S 730 mmHg 67%

    25 Oktober, Donnerstag

    Zeit Temperatur Niederschläge Wind Luftdruck Luftfeuchtigkeit
    00:00 +4°C° 0 mm 6 m/S 730 mmHg 70%
    01:00 +4°C° 0 mm 6 m/S 731 mmHg 73%
    02:00 +4°C° 0 mm 6 m/S 731 mmHg 77%
    03:00 +4°C° 0.1 mm 7 m/S 731 mmHg 75%
    04:00 +4°C° 0.1 mm 7 m/S 731 mmHg 73%
    05:00 +5°C° 0.1 mm 8 m/S 732 mmHg 71%
    06:00 +5°C° 0 mm 8 m/S 732 mmHg 70%
    07:00 +5°C° 0 mm 8 m/S 733 mmHg 68%
    08:00 +5°C° 0 mm 8 m/S 733 mmHg 67%
    09:00 +6°C° 0 mm 8 m/S 734 mmHg 64%
    10:00 +6°C° 0 mm 8 m/S 735 mmHg 61%
    11:00 +7°C° 0 mm 8 m/S 735 mmHg 57%
    12:00 +7°C° 0.1 mm 8 m/S 735 mmHg 57%
    13:00 +7°C° 0.1 mm 8 m/S 736 mmHg 57%
    14:00 +7°C° 0.1 mm 8 m/S 736 mmHg 57%
    15:00 +8°C° 0.1 mm 7 m/S 736 mmHg 59%
    16:00 +6°C° 0.1 mm 7 m/S 737 mmHg 62%
    17:00 +6°C° 0.1 mm 7 m/S 737 mmHg 64%
    18:00 +5°C° 0 mm 6 m/S 738 mmHg 65%
    19:00 +5°C° 0 mm 5 m/S 738 mmHg 66%
    20:00 +5°C° 0 mm 5 m/S 738 mmHg 66%
    21:00 +5°C° 0 mm 5 m/S 738 mmHg 66%
    22:00 +5°C° 0 mm 4 m/S 739 mmHg 66%
    23:00 +5°C° 0 mm 4 m/S 739 mmHg 66%

    26 Oktober, Freitag

    Zeit Temperatur Niederschläge Wind Luftdruck Luftfeuchtigkeit
    00:00 +5°C° 0 mm 4 m/S 739 mmHg 68%
    01:00 +4°C° 0 mm 3 m/S 738 mmHg 69%
    02:00 +4°C° 0 mm 3 m/S 738 mmHg 70%
    03:00 +5°C° 0 mm 2 m/S 739 mmHg 71%
    04:00 +6°C° 0 mm 1 m/S 739 mmHg 73%
    05:00 +6°C° 0 mm 1 m/S 739 mmHg 74%
    06:00 +5°C° 0 mm 2 m/S 740 mmHg 73%
    07:00 +4°C° 0 mm 3 m/S 741 mmHg 73%
    08:00 +5°C° 0 mm 4 m/S 742 mmHg 72%
    09:00 +6°C° 0 mm 5 m/S 743 mmHg 66%
    10:00 +6°C° 0 mm 5 m/S 743 mmHg 61%
    11:00 +7°C° 0 mm 6 m/S 744 mmHg 55%
    12:00 +8°C° 0 mm 6 m/S 745 mmHg 52%
    13:00 +8°C° 0 mm 6 m/S 745 mmHg 49%
    14:00 +9°C° 0 mm 6 m/S 745 mmHg 46%
    15:00 +8°C° 0 mm 5 m/S 746 mmHg 49%
    16:00 +8°C° 0 mm 4 m/S 747 mmHg 52%
    17:00 +7°C° 0 mm 4 m/S 747 mmHg 55%
    18:00 +8°C° 0 mm 3 m/S 748 mmHg 59%
    19:00 +8°C° 0 mm 3 m/S 749 mmHg 62%
    20:00 +8°C° 0 mm 3 m/S 749 mmHg 66%
    21:00 +7°C° 0 mm 3 m/S 750 mmHg 69%
    22:00 +7°C° 0 mm 3 m/S 751 mmHg 73%
    23:00 +5°C° 0 mm 3 m/S 751 mmHg 76%

    27 Oktober, Samstag

    Zeit Temperatur Niederschläge Wind Luftdruck Luftfeuchtigkeit
    00:00 +5°C° 0 mm 3 m/S 751 mmHg 77%
    01:00 +5°C° 0 mm 3 m/S 752 mmHg 78%
    02:00 +5°C° 0 mm 2 m/S 752 mmHg 79%
    03:00 +5°C° 0 mm 2 m/S 752 mmHg 79%
    04:00 +5°C° 0 mm 2 m/S 752 mmHg 79%
    05:00 +5°C° 0 mm 2 m/S 752 mmHg 79%
    06:00 +5°C° 0 mm 3 m/S 752 mmHg 75%
    07:00 +5°C° 0 mm 3 m/S 753 mmHg 71%
    08:00 +6°C° 0 mm 4 m/S 753 mmHg 67%
    09:00 +8°C° 0 mm 5 m/S 752 mmHg 65%
    10:00 +10°C° 0 mm 6 m/S 752 mmHg 63%
    11:00 +11°C° 0 mm 7 m/S 752 mmHg 61%
    12:00 +12°C° 0 mm 7 m/S 751 mmHg 64%
    13:00 +12°C° 0 mm 7 m/S 751 mmHg 67%
    14:00 +14°C° 0 mm 7 m/S 750 mmHg 70%
    15:00 +14°C° 0 mm 7 m/S 750 mmHg 72%
    16:00 +14°C° 0 mm 7 m/S 750 mmHg 74%
    17:00 +14°C° 0 mm 7 m/S 750 mmHg 77%
    18:00 +12°C° 0 mm 7 m/S 750 mmHg 79%
    19:00 +12°C° 0 mm 7 m/S 750 mmHg 82%
    20:00 +12°C° 0 mm 7 m/S 750 mmHg 84%
    21:00 +11°C° 0 mm 7 m/S 751 mmHg 85%
    22:00 +11°C° 0 mm 6 m/S 751 mmHg 86%
    23:00 +11°C° 0 mm 6 m/S 751 mmHg 87%

    28 Oktober, Sonntag

    Zeit Temperatur Niederschläge Wind Luftdruck Luftfeuchtigkeit
    00:00 +11°C° 0 mm 6 m/S 751 mmHg 87%
    01:00 +10°C° 0 mm 6 m/S 751 mmHg 86%
    02:00 +10°C° 0 mm 6 m/S 751 mmHg 86%
    03:00 +10°C° 0 mm 6 m/S 751 mmHg 84%
    04:00 +10°C° 0 mm 6 m/S 751 mmHg 83%
    05:00 +10°C° 0 mm 6 m/S 751 mmHg 82%
    06:00 +11°C° 0 mm 7 m/S 751 mmHg 78%
    07:00 +11°C° 0 mm 7 m/S 751 mmHg 74%
    08:00 +12°C° 0 mm 7 m/S 751 mmHg 70%
    09:00 +15°C° 0 mm 8 m/S 751 mmHg 63%
    10:00 +17°C° 0 mm 9 m/S 751 mmHg 55%
    11:00 +19°C° 0 mm 9 m/S 751 mmHg 47%
    12:00 +21°C° 0 mm 9 m/S 751 mmHg 45%
    13:00 +21°C° 0 mm 9 m/S 751 mmHg 43%
    14:00 +22°C° 0 mm 9 m/S 750 mmHg 41%
    15:00 +21°C° 0 mm 8 m/S 750 mmHg 47%
    16:00 +20°C° 0 mm 7 m/S 750 mmHg 52%
    17:00 +17°C° 0 mm 6 m/S 750 mmHg 57%
    18:00 +17°C° 0 mm 6 m/S 751 mmHg 62%
    19:00 +16°C° 0 mm 6 m/S 751 mmHg 67%
    20:00 +15°C° 0 mm 6 m/S 751 mmHg 71%
    21:00 +15°C° 0 mm 6 m/S 751 mmHg 74%
    22:00 +15°C° 0 mm 6 m/S 751 mmHg 77%
    23:00 +14°C° 0 mm 5 m/S 752 mmHg 80%
    Mehr zeigen